This is the latest recevied weather packets stored in our database for station/object 9W2RUT-10. If no packets are shown the sender has not sent any weather packets the latest 10 day(s).
| Time | Temp. | Humidity | Pressure | Rain* | Wind** | Luminosity | Snow |
|---|---|---|---|---|---|---|---|
| 1777138813 | 27.78° C | 70% | 1013 hPa | - | - | - | - |
| 1777138208 | 27.78° C | 71% | 1012.8 hPa | - | - | - | - |
| 1777137604 | 27.78° C | 71% | 1013.8 hPa | - | - | - | - |
| 1777137001 | 27.78° C | 71% | 1014.2 hPa | - | - | - | - |
| 1777136397 | 27.78° C | 71% | 1014.5 hPa | - | - | - | - |
| 1777135793 | 27.22° C | 71% | 1014.3 hPa | - | - | - | - |
| 1777135189 | 27.78° C | 70% | 1014.6 hPa | - | - | - | - |
| 1777134585 | 27.78° C | 71% | 1014.6 hPa | - | - | - | - |
| 1777133981 | 27.78° C | 70% | 1014.7 hPa | - | - | - | - |
| 1777133377 | 27.78° C | 69% | 1015 hPa | - | - | - | - |
| 1777132773 | 27.78° C | 69% | 1014.4 hPa | - | - | - | - |
| 1777132169 | 27.78° C | 69% | 1014.7 hPa | - | - | - | - |
| 1777131565 | 27.78° C | 68% | 1014.4 hPa | - | - | - | - |
| 1777130961 | 28.33° C | 67% | 1014.3 hPa | - | - | - | - |
| 1777130357 | 28.33° C | 66% | 1013.9 hPa | - | - | - | - |
| 1777129753 | 28.33° C | 66% | 1014.3 hPa | - | - | - | - |
| 1777129149 | 28.33° C | 65% | 1014.7 hPa | - | - | - | - |
| 1777128545 | 28.33° C | 65% | 1014.4 hPa | - | - | - | - |
| 1777127941 | 28.33° C | 64% | 1014.1 hPa | - | - | - | - |
| 1777127337 | 29.44° C | 62% | 1013.4 hPa | - | - | - | - |
| 1777126733 | 30° C | 60% | 1013.4 hPa | - | - | - | - |
| 1777126129 | 30.56° C | 60% | 1013.7 hPa | - | - | - | - |
| 1777125525 | 30° C | 63% | 1013.8 hPa | - | - | - | - |
| 1777124921 | 29.44° C | 62% | 1013.4 hPa | - | - | - | - |
| 1777124317 | 29.44° C | 62% | 1013.7 hPa | - | - | - | - |
* Rain since midnight (hover to see other rain measurements)
** Current wind speed in m/s (hover to see current wind gust speed)